Time,TemperatureF,DewpointF,PressureIn,WindDirection,WindDirectionDegrees,WindSpeedMPH,WindSpeedGustMPH,Humidity,HourlyPrecipIn,Conditions,Clouds,dailyrainin,SolarRadiationWatts/m^2,SoftwareType,DateUTC
2013-05-23 00:23:00,65.0,65.0,-100.00,South,189,2.0,6.0,100,0.01,,,0.02,1.000000,,2013-05-23 04:23:00,
2013-05-23 00:33:00,65.0,65.0,-100.00,South,189,2.0,6.0,100,0.01,,,0.02,1.000000,,2013-05-23 04:33:00,
2013-05-23 00:43:00,65.0,65.0,-100.00,South,189,2.0,6.0,100,0.01,,,0.02,1.000000,,2013-05-23 04:43:00,
2013-05-23 00:52:00,65.0,65.0,-100.00,South,189,2.0,6.0,100,0.01,,,0.02,1.000000,,2013-05-23 04:52:00,
2013-05-23 01:22:00,65.0,65.0,-100.00,SSW,198,2.0,9.0,100,0.00,,,0.02,1.000000,,2013-05-23 05:22:00,
2013-05-23 01:32:00,65.0,65.0,-100.00,SSW,198,2.0,9.0,100,0.00,,,0.02,1.000000,,2013-05-23 05:32:00,
2013-05-23 01:43:00,65.0,65.0,-100.00,SSW,198,2.0,9.0,100,0.00,,,0.02,1.000000,,2013-05-23 05:43:00,
2013-05-23 01:52:00,65.0,65.0,-100.00,SSW,198,2.0,9.0,100,0.00,,,0.02,1.000000,,2013-05-23 05:52:00,
2013-05-23 02:22:00,65.0,65.0,-100.00,ENE,77,4.0,8.0,100,0.00,,,0.02,1.000000,,2013-05-23 06:22:00,
2013-05-23 02:32:00,65.0,65.0,-100.00,ENE,77,4.0,8.0,100,0.00,,,0.02,1.000000,,2013-05-23 06:32:00,
2013-05-23 02:42:00,65.0,65.0,-100.00,ENE,77,4.0,8.0,100,0.00,,,0.02,1.000000,,2013-05-23 06:42:00,
2013-05-23 02:52:00,65.0,65.0,-100.00,ENE,77,4.0,8.0,100,0.00,,,0.02,1.000000,,2013-05-23 06:52:00,
2013-05-23 02:56:00,64.0,64.0,-100.00,South,177,4.0,8.0,100,0.00,,,0.02,1.000000,,2013-05-23 06:56:00,
2013-05-23 03:22:00,64.0,64.0,-100.00,South,177,4.0,8.0,100,0.00,,,0.02,1.000000,,2013-05-23 07:22:00,
2013-05-23 03:32:00,64.0,64.0,-100.00,South,177,4.0,8.0,100,0.00,,,0.02,1.000000,,2013-05-23 07:32:00,
2013-05-23 03:42:00,64.0,64.0,-100.00,South,177,4.0,8.0,100,0.00,,,0.02,1.000000,,2013-05-23 07:42:00,
2013-05-23 04:22:00,65.0,65.0,-100.00,SE,129,5.0,10.0,100,0.01,,,0.03,1.000000,,2013-05-23 08:22:00,
2013-05-23 04:32:00,65.0,65.0,-100.00,SE,129,5.0,10.0,100,0.01,,,0.03,1.000000,,2013-05-23 08:32:00,
2013-05-23 04:42:00,65.0,65.0,-100.00,SE,129,5.0,10.0,100,0.01,,,0.03,1.000000,,2013-05-23 08:42:00,
2013-05-23 04:51:00,65.0,65.0,-100.00,SE,129,5.0,10.0,100,0.01,,,0.03,1.000000,,2013-05-23 08:51:00,
2013-05-23 05:22:00,65.0,65.0,-100.00,ESE,116,6.0,15.0,100,0.00,,,0.03,1.000000,,2013-05-23 09:22:00,
2013-05-23 05:33:00,65.0,65.0,-100.00,ESE,116,6.0,15.0,100,0.00,,,0.03,1.000000,,2013-05-23 09:33:00,
2013-05-23 05:42:00,65.0,65.0,-100.00,ESE,116,6.0,15.0,100,0.00,,,0.03,1.000000,,2013-05-23 09:42:00,
2013-05-23 05:53:00,65.0,65.0,-100.00,ESE,116,6.0,15.0,100,0.00,,,0.03,1.000000,,2013-05-23 09:53:00,
2013-05-23 06:22:00,64.0,64.0,-100.00,WSW,237,2.0,9.0,100,0.00,,,0.03,2.000000,,2013-05-23 10:22:00,
2013-05-23 06:32:00,64.0,64.0,-100.00,WSW,237,2.0,9.0,100,0.00,,,0.03,2.000000,,2013-05-23 10:32:00,
2013-05-23 06:42:00,64.0,64.0,-100.00,WSW,237,2.0,9.0,100,0.00,,,0.03,2.000000,,2013-05-23 10:42:00,
2013-05-23 06:52:00,64.0,64.0,-100.00,WSW,237,2.0,9.0,100,0.00,,,0.03,2.000000,,2013-05-23 10:52:00,
2013-05-23 07:22:00,65.0,65.0,-100.00,ENE,59,3.0,7.0,100,0.00,,,0.03,11.000000,,2013-05-23 11:22:00,
2013-05-23 07:32:00,65.0,65.0,-100.00,ENE,59,3.0,7.0,100,0.00,,,0.03,11.000000,,2013-05-23 11:32:00,
2013-05-23 07:42:00,65.0,65.0,-100.00,ENE,59,3.0,7.0,100,0.00,,,0.03,11.000000,,2013-05-23 11:42:00,
2013-05-23 07:52:00,65.0,65.0,-100.00,ENE,59,3.0,7.0,100,0.00,,,0.03,11.000000,,2013-05-23 11:52:00,
2013-05-23 08:22:00,66.0,66.0,-100.00,NNE,32,3.0,9.0,100,0.01,,,0.04,47.000000,,2013-05-23 12:22:00,
2013-05-23 08:32:00,66.0,66.0,-100.00,NNE,32,3.0,9.0,100,0.01,,,0.04,47.000000,,2013-05-23 12:32:00,
2013-05-23 08:42:00,66.0,66.0,-100.00,NNE,32,3.0,9.0,100,0.01,,,0.04,47.000000,,2013-05-23 12:42:00,
2013-05-23 08:52:00,66.0,66.0,-100.00,NNE,32,3.0,9.0,100,0.01,,,0.04,47.000000,,2013-05-23 12:52:00,
2013-05-23 09:22:00,67.0,67.0,-100.00,SSW,211,4.0,11.0,100,0.00,,,0.04,161.000000,,2013-05-23 13:22:00,
2013-05-23 09:32:00,67.0,67.0,-100.00,SSW,211,4.0,11.0,100,0.00,,,0.04,161.000000,,2013-05-23 13:32:00,
2013-05-23 09:42:00,67.0,67.0,-100.00,SSW,211,4.0,11.0,100,0.00,,,0.04,161.000000,,2013-05-23 13:42:00,
2013-05-23 09:52:00,67.0,67.0,-100.00,SSW,211,4.0,11.0,100,0.00,,,0.04,161.000000,,2013-05-23 13:52:00,
2013-05-23 10:21:00,70.0,68.0,-100.00,WSW,241,4.0,9.0,94,0.06,,,0.10,281.000000,,2013-05-23 14:21:00,
2013-05-23 10:32:00,70.0,68.0,-100.00,WSW,241,4.0,9.0,94,0.06,,,0.10,281.000000,,2013-05-23 14:32:00,
2013-05-23 10:42:00,70.0,68.0,-100.00,WSW,241,4.0,9.0,94,0.06,,,0.10,281.000000,,2013-05-23 14:42:00,
2013-05-23 10:52:00,70.0,68.0,-100.00,WSW,241,4.0,9.0,94,0.06,,,0.10,281.000000,,2013-05-23 14:52:00,
2013-05-23 11:22:00,74.0,68.0,-100.00,WSW,244,4.0,12.0,83,0.11,,,0.21,517.000000,,2013-05-23 15:22:00,
2013-05-23 11:33:00,74.0,68.0,-100.00,WSW,244,4.0,12.0,83,0.11,,,0.21,517.000000,,2013-05-23 15:33:00,
2013-05-23 11:43:00,74.0,68.0,-100.00,WSW,244,4.0,12.0,83,0.11,,,0.21,517.000000,,2013-05-23 15:43:00,
2013-05-23 11:53:00,74.0,68.0,-100.00,WSW,244,4.0,12.0,83,0.11,,,0.21,517.000000,,2013-05-23 15:53:00,
2013-05-23 12:23:00,72.0,68.0,-100.00,WSW,258,3.0,10.0,86,0.09,,,0.30,338.000000,,2013-05-23 16:23:00,
2013-05-23 12:34:00,72.0,68.0,-100.00,WSW,258,3.0,10.0,86,0.09,,,0.30,338.000000,,2013-05-23 16:34:00,
2013-05-23 12:42:00,72.0,68.0,-100.00,WSW,258,3.0,10.0,86,0.09,,,0.30,338.000000,,2013-05-23 16:42:00,
2013-05-23 12:52:00,72.0,68.0,-100.00,WSW,258,3.0,10.0,86,0.09,,,0.30,338.000000,,2013-05-23 16:52:00,
2013-05-23 13:23:00,70.0,67.0,-100.00,West,259,4.0,9.0,90,0.06,,,0.36,202.000000,,2013-05-23 17:23:00,
2013-05-23 13:33:00,70.0,67.0,-100.00,West,259,4.0,9.0,90,0.06,,,0.36,202.000000,,2013-05-23 17:33:00,
2013-05-23 13:43:00,70.0,67.0,-100.00,West,259,4.0,9.0,90,0.06,,,0.36,202.000000,,2013-05-23 17:43:00,
2013-05-23 13:52:00,70.0,67.0,-100.00,West,259,4.0,9.0,90,0.06,,,0.36,202.000000,,2013-05-23 17:52:00,
2013-05-23 14:22:00,70.0,68.0,-100.00,WSW,253,4.0,10.0,95,0.03,,,0.39,271.000000,,2013-05-23 18:22:00,
2013-05-23 14:32:00,70.0,68.0,-100.00,WSW,253,4.0,10.0,95,0.03,,,0.39,271.000000,,2013-05-23 18:32:00,
2013-05-23 14:42:00,70.0,68.0,-100.00,WSW,253,4.0,10.0,95,0.03,,,0.39,271.000000,,2013-05-23 18:42:00,
2013-05-23 14:52:00,70.0,68.0,-100.00,WSW,253,4.0,10.0,95,0.03,,,0.39,271.000000,,2013-05-23 18:52:00,
2013-05-23 15:21:00,72.0,70.0,-100.00,WSW,250,3.0,7.0,94,0.02,,,0.41,373.000000,,2013-05-23 19:21:00,
2013-05-23 15:32:00,72.0,70.0,-100.00,WSW,250,3.0,7.0,94,0.02,,,0.41,373.000000,,2013-05-23 19:32:00,
2013-05-23 15:42:00,72.0,70.0,-100.00,WSW,250,3.0,7.0,94,0.02,,,0.41,373.000000,,2013-05-23 19:42:00,
2013-05-23 15:52:00,72.0,70.0,-100.00,WSW,250,3.0,7.0,94,0.02,,,0.41,373.000000,,2013-05-23 19:52:00,
2013-05-23 16:22:00,76.0,69.0,-100.00,SW,223,5.0,13.0,78,0.01,,,0.42,680.000000,,2013-05-23 20:22:00,
2013-05-23 16:32:00,76.0,69.0,-100.00,SW,223,5.0,13.0,78,0.01,,,0.42,680.000000,,2013-05-23 20:32:00,
2013-05-23 16:42:00,76.0,69.0,-100.00,SW,223,5.0,13.0,78,0.01,,,0.42,680.000000,,2013-05-23 20:42:00,
2013-05-23 16:52:00,76.0,69.0,-100.00,SW,223,5.0,13.0,78,0.01,,,0.42,680.000000,,2013-05-23 20:52:00,
2013-05-23 17:22:00,76.0,67.0,-100.00,SSE,157,4.0,12.0,75,0.01,,,0.43,475.000000,,2013-05-23 21:22:00,
2013-05-23 17:33:00,76.0,67.0,-100.00,SSE,157,4.0,12.0,75,0.01,,,0.43,475.000000,,2013-05-23 21:33:00,
2013-05-23 17:43:00,76.0,67.0,-100.00,SSE,157,4.0,12.0,75,0.01,,,0.43,475.000000,,2013-05-23 21:43:00,
2013-05-23 17:53:00,76.0,67.0,-100.00,SSE,157,4.0,12.0,75,0.01,,,0.43,475.000000,,2013-05-23 21:53:00,
2013-05-23 18:23:00,74.0,67.0,-100.00,South,184,3.0,11.0,79,0.00,,,-99.99,210.000000,,2013-05-23 22:23:00,
2013-05-23 18:33:00,74.0,67.0,-100.00,South,184,3.0,11.0,79,0.00,,,-99.99,210.000000,,2013-05-23 22:33:00,
2013-05-23 18:42:00,74.0,67.0,-100.00,South,184,3.0,11.0,79,0.00,,,-99.99,210.000000,,2013-05-23 22:42:00,
2013-05-23 18:52:00,74.0,67.0,-100.00,South,184,3.0,11.0,79,0.00,,,-99.99,210.000000,,2013-05-23 22:52:00,
2013-05-23 19:22:00,73.0,67.0,-100.00,SE,125,4.0,10.0,81,0.00,,,0.43,147.000000,,2013-05-23 23:22:00,
2013-05-23 19:32:00,73.0,67.0,-100.00,SE,125,4.0,10.0,81,0.00,,,0.43,147.000000,,2013-05-23 23:32:00,
2013-05-23 19:42:00,73.0,67.0,-100.00,SE,125,4.0,10.0,81,0.00,,,0.43,147.000000,,2013-05-23 23:42:00,
2013-05-23 19:52:00,73.0,67.0,-100.00,SE,125,4.0,10.0,81,0.00,,,0.43,147.000000,,2013-05-23 23:52:00,
2013-05-23 20:22:00,69.0,69.0,-100.00,SSE,167,1.0,6.0,100,0.00,,,0.43,64.000000,,2013-05-24 00:22:00,
2013-05-23 20:32:00,69.0,69.0,-100.00,SSE,167,1.0,6.0,100,0.00,,,0.43,64.000000,,2013-05-24 00:32:00,
2013-05-23 20:42:00,69.0,69.0,-100.00,SSE,167,1.0,6.0,100,0.00,,,0.43,64.000000,,2013-05-24 00:42:00,
2013-05-23 20:52:00,69.0,69.0,-100.00,SSE,167,1.0,6.0,100,0.00,,,0.43,64.000000,,2013-05-24 00:52:00,
2013-05-23 21:12:00,64.0,61.0,-100.00,WNW,296,4.0,15.0,91,0.00,,,0.43,4.000000,,2013-05-24 01:12:00,
2013-05-23 21:22:00,64.0,61.0,-100.00,WNW,296,4.0,15.0,91,0.00,,,0.43,4.000000,,2013-05-24 01:22:00,
2013-05-23 21:32:00,64.0,61.0,-100.00,WNW,296,4.0,15.0,91,0.00,,,0.43,4.000000,,2013-05-24 01:32:00,
2013-05-23 21:42:00,64.0,61.0,-100.00,WNW,296,4.0,15.0,91,0.00,,,0.43,4.000000,,2013-05-24 01:42:00,
2013-05-23 21:52:00,64.0,61.0,-100.00,WNW,296,4.0,15.0,91,0.00,,,0.43,4.000000,,2013-05-24 01:52:00,
2013-05-23 22:22:00,61.0,61.0,-100.00,SW,225,0.0,6.0,100,0.02,,,0.44,1.000000,,2013-05-24 02:22:00,
2013-05-23 22:32:00,61.0,61.0,-100.00,SW,225,0.0,6.0,100,0.02,,,0.44,1.000000,,2013-05-24 02:32:00,
2013-05-23 22:42:00,61.0,61.0,-100.00,SW,225,0.0,6.0,100,0.02,,,0.44,1.000000,,2013-05-24 02:42:00,
2013-05-23 22:52:00,61.0,61.0,-100.00,SW,225,0.0,6.0,100,0.02,,,0.44,1.000000,,2013-05-24 02:52:00,
2013-05-23 23:22:00,61.0,61.0,-100.00,NW,317,0.0,6.0,100,0.03,,,0.47,1.000000,,2013-05-24 03:22:00,
2013-05-23 23:33:00,61.0,61.0,-100.00,NW,317,0.0,6.0,100,0.03,,,0.47,1.000000,,2013-05-24 03:33:00,
2013-05-23 23:42:00,61.0,61.0,-100.00,NW,317,0.0,6.0,100,0.03,,,0.47,1.000000,,2013-05-24 03:42:00,
2013-05-23 23:53:00,61.0,61.0,-100.00,NW,317,0.0,6.0,100,0.03,,,0.47,1.000000,,2013-05-24 03:53:00,